Find Starlink 3456

NORAD ID: 51759 Int'l Des: 2022-016 Owner: SPXS Country: US Constellation: starlink operational
LEOCIRCULAR

リアルタイム位置

3D地球を読み込み中...

Starlink 3456について

説明を読み込み中...

次回通過

Passes for default location (London). Set your location on the main map for personalized predictions.

高度履歴

Loading altitude history...

軌道要素

1 51759U 22016AX 26106.28108954 .00000606 00000-0 56130-4 0 9991
2 51759 53.2160 140.3680 0001152 94.1806 265.9318 15.08838576229384
Epoch: Apr 16, 2026 • Age: 12 hours

現在のステータス

高度 555.8 km
速度 7.58 km/s
衛星直下点 -45.17°S, 43.16°W
打ち上げ日 Feb 21, 2022
運用期間 4.1 years
タイプ internet

技術仕様

分類 Payload
質量 297.00 kg
乾燥質量 275.00 kg
総質量 297.00 kg
長さ 0.20 m
直径 2.80 m
スパン 9.00 m
形状 Box + pan
製造者 SPXS
バスタイプ Starlink
フェーズステータス In Orbit
所有者/国 SPXS/US

Most Searched